Orbital Elements at Epoch 2459000.5 (2020-May-31.0) TDB
Reference: JPL 9 (heliocentric ecliptic J2000)
Element | Value | Uncertainty (1-sigma) | Units |
e | .1217561355358174 | 5.1647e-08 | |
a | 2.3551481746775 | 1.4198e-08 | au |
q | 2.068394434314534 | 1.1856e-07 | au |
i | 2.317029179732217 | 5.6532e-06 | deg |
node | 109.4040419591146 | 0.00015136 | deg |
peri | 51.68808071018341 | 0.00015442 | deg |
M | 70.21040729173031 | 2.9728e-05 | deg |
tp | 2458743.031102947677 (2019-Sep-16.53110295) | 0.00010812 | TDB |
period | 1320.157602187187 3.61 | 1.1938e-05 3.268e-08 | d yr |
n | .2726947141792508 | 2.4659e-09 | deg/d |
Q | 2.641901915040467 | 1.5926e-08 | au |
|
| | Orbit Determination Parameters
Additional Information
|